Change the Weather History Date:

Saturday, March 22, 2014

  Actual Average Record
Temperature  
Mean Temperature 67 °F -  
Max Temperature 78 °F - 82 °F (2012)
Min Temperature 56 °F - 47 °F (2013)
Degree Days  
Heating Degree Days 0    
Cooling Degree Days 2    
Growing Degree Days 16 (Base 50)    
Moisture  
Dew Point 56 °F    
Average Humidity 66    
Maximum Humidity 93    
Minimum Humidity 39    
Precipitation  
Precipitation 0.00 in - 0.00 in (2015)
Month to date precipitation 6.25  
Year to date precipitation 15.93  
Sea Level Pressure  
Sea Level Pressure 30.06 in    
Wind  
Wind Speed 1 mph (NW)    
Max Wind Speed 16 mph    
Max Gust Speed 22 mph    
Visibility 4 miles    
Events Fog    
T = Trace of Precipitation, MM = Missing Value Source: NWS Daily Summary

Daily Weather History Graph

Daily Weather History Graph

Search for Another Location

Airport or City:

Trip Planner

Search our weather history database for the weather conditions in past years. The results will help you decide how hot, cold, wet, or windy it might be!

Date:

Astronomy

Mar. 22, 2014 Rise Set
Actual Time 7:44 AM EDT 7:55 PM EDT
Civil Twilight 7:20 AM EDT 8:19 PM EDT
Nautical Twilight 6:52 AM EDT 8:47 PM EDT
Astronomical Twilight 6:24 AM EDT 9:16 PM EDT
Moon 12:55 AM EDT (3/22) 11:47 AM EDT (3/22)
Length of Visible Light 12h 59m
Length of Day
12h 11m
Waning Gibbous, 65% of the Moon is Illuminated
Mar 22
Waning Gibbous
Mar 23
Last Quarter
Mar 30
New
Apr 7
First Quarter
Apr 15
Full

Hourly Weather History & Observations

Time (EDT) Temp. Dew Point Humidity Pressure Visibility Wind Dir Wind Speed Gust Speed Precip Events Conditions
12:26 AM 57.2 °F 53.6 °F 88% 30.04 in 2.0 mi Calm Calm - N/A   Mostly Cloudy
12:36 AM 57.2 °F 53.6 °F 88% 30.04 in 0.8 mi Calm Calm - N/A   Mist
12:53 AM 55.0 °F 52.0 °F 89% 30.06 in 1.8 mi Calm Calm - N/A   Scattered Clouds
12:57 AM 55.4 °F 53.6 °F 94% 30.03 in 3.0 mi Calm Calm - N/A   Mostly Cloudy
1:07 AM 55.4 °F 53.6 °F 94% 30.03 in 1.8 mi Calm Calm - N/A   Mostly Cloudy
1:18 AM 55.4 °F 53.6 °F 94% 30.03 in 0.5 mi Calm Calm - N/A Fog Fog
1:26 AM 55.4 °F 53.6 °F 94% 30.02 in 0.2 mi Calm Calm - N/A Fog Fog
1:53 AM 57.0 °F 54.0 °F 89% 30.06 in 0.2 mi Calm Calm - N/A Fog Fog
2:53 AM 57.9 °F 55.9 °F 93% 30.06 in 0.2 mi Calm Calm - N/A Fog Fog
3:53 AM 59.0 °F 57.0 °F 93% 30.05 in 0.2 mi Calm Calm - N/A Fog Fog
4:53 AM 59.0 °F 57.0 °F 93% 30.06 in 0.2 mi Calm Calm - N/A Fog Fog
5:10 AM 59.0 °F 57.2 °F 94% 30.02 in 0.2 mi Calm Calm - N/A Fog Fog
5:22 AM 59.0 °F 57.2 °F 94% 30.02 in 0.5 mi Calm Calm - N/A Fog Fog
5:40 AM 59.0 °F 57.2 °F 94% 30.03 in 1.5 mi NNE 3.5 mph - N/A   Overcast
5:53 AM 59.0 °F 57.0 °F 93% 30.07 in 0.8 mi Calm Calm - N/A   Overcast
6:12 AM 60.8 °F 57.2 °F 88% 30.04 in 2.0 mi North 3.5 mph - N/A   Overcast
6:23 AM 60.8 °F 57.2 °F 88% 30.04 in 3.0 mi Calm Calm - N/A   Overcast
6:35 AM 60.8 °F 57.2 °F 88% 30.04 in 1.0 mi Calm Calm - N/A   Overcast
6:53 AM 60.1 °F 57.9 °F 93% 30.09 in 0.5 mi Calm Calm - N/A Fog Fog
7:03 AM 60.8 °F 57.2 °F 88% 30.05 in 0.2 mi Calm Calm - N/A Fog Fog
7:42 AM 60.8 °F 57.2 °F 88% 30.06 in 0.5 mi Calm Calm - N/A Fog Fog
7:53 AM 60.1 °F 57.9 °F 93% 30.10 in 0.2 mi Calm Calm - N/A Fog Fog
8:53 AM 62.1 °F 60.1 °F 93% 30.11 in 0.2 mi North 3.5 mph - N/A Fog Fog
9:34 AM 62.6 °F 60.8 °F 94% 30.08 in 0.8 mi North 4.6 mph - N/A   Overcast
9:53 AM 62.1 °F 60.1 °F 93% 30.12 in 0.5 mi Calm Calm - N/A Fog Fog
9:55 AM 62.6 °F 60.8 °F 94% 30.08 in 2.0 mi North 3.5 mph - N/A   Overcast
10:32 AM 64.4 °F 59.0 °F 83% 30.09 in 8.0 mi Calm Calm - N/A   Overcast
10:53 AM 66.0 °F 59.0 °F 78% 30.12 in 8.0 mi Calm Calm - N/A   Overcast
11:01 AM 66.2 °F 59.0 °F 78% 30.09 in 9.0 mi Calm Calm - N/A   Mostly Cloudy
11:15 AM 69.8 °F 59.0 °F 68% 30.08 in 9.0 mi North 4.6 mph - N/A   Mostly Cloudy
11:53 AM 71.1 °F 57.0 °F 61% 30.10 in 10.0 mi North 8.1 mph - N/A   Mostly Cloudy
12:53 PM 73.9 °F 55.0 °F 52% 30.09 in 10.0 mi Variable 4.6 mph - N/A   Partly Cloudy
1:53 PM 75.0 °F 53.1 °F 46% 30.06 in 10.0 mi Variable 3.5 mph - N/A   Clear
2:53 PM 77.0 °F 50.0 °F 39% 30.04 in 9.0 mi Calm Calm - N/A   Clear
3:53 PM 73.9 °F 57.9 °F 57% 30.03 in 10.0 mi South 10.4 mph - N/A   Partly Cloudy
4:53 PM 75.0 °F 57.9 °F 55% 30.01 in 10.0 mi South 12.7 mph - N/A   Clear
5:53 PM 73.0 °F 57.0 °F 57% 30.01 in 10.0 mi SW 9.2 mph - N/A   Clear
6:53 PM 71.1 °F 55.0 °F 57% 30.03 in 10.0 mi SSW 9.2 mph - N/A   Clear
7:53 PM 66.9 °F 54.0 °F 63% 30.04 in 10.0 mi SW 4.6 mph - N/A   Clear
8:53 PM 64.0 °F 55.9 °F 75% 30.07 in 10.0 mi South 4.6 mph - N/A   Clear
9:53 PM 63.0 °F 57.9 °F 84% 30.09 in 9.0 mi Calm Calm - N/A   Clear
10:53 PM 61.0 °F 57.9 °F 90% 30.09 in 6.0 mi Calm Calm - N/A   Clear
11:53 PM 57.9 °F 55.0 °F 90% 30.09 in 3.0 mi Calm Calm - N/A   Clear